This is the latest recevied weather packets stored in our database for station/object OH6GKW. If no packets are shown the sender has not sent any weather packets the latest 10 day(s).
| Time | Temp. | Humidity | Pressure | Rain* | Wind** | Luminosity | Snow |
|---|---|---|---|---|---|---|---|
| 1788347320 | 17.22° C | 60% | 1003.3 hPa | 0.25 mm | - | 567 W/m² | - |
| 1788347011 | 17.22° C | 63% | 1003.3 hPa | 0.25 mm | - | 572 W/m² | - |
| 1788346732 | 17.22° C | 63% | 1003.3 hPa | 0.25 mm | - | 572 W/m² | - |
| 1788346424 | 17.78° C | 62% | 1003.3 hPa | 0.25 mm | - | 575 W/m² | - |
| 1788346120 | 17.22° C | 64% | 1003.3 hPa | 0.25 mm | - | 574 W/m² | - |
| 1788345812 | 17.78° C | 64% | 1003.3 hPa | 0.25 mm | - | 572 W/m² | - |
| 1788345524 | 17.78° C | 63% | 1003.3 hPa | 0.25 mm | - | 572 W/m² | - |
| 1788345223 | 17.22° C | 65% | 1003.3 hPa | 0.25 mm | - | 572 W/m² | - |
| 1788344913 | 17.22° C | 63% | 1003.3 hPa | 0.25 mm | - | 579 W/m² | - |
| 1788344609 | 17.22° C | 65% | 1003.3 hPa | 0.25 mm | - | 579 W/m² | - |
| 1788344332 | 17.22° C | 67% | 1003.3 hPa | 0.25 mm | - | 579 W/m² | - |
| 1788344020 | 17.22° C | 68% | 1003.3 hPa | 0.25 mm | - | 570 W/m² | - |
| 1788343711 | 17.22° C | 66% | 1003.3 hPa | 0.25 mm | - | 560 W/m² | - |
| 1788343425 | 17.22° C | 68% | 1003.3 hPa | 0.25 mm | - | 577 W/m² | - |
| 1788343115 | 17.22° C | 68% | 1003.3 hPa | 0.25 mm | - | 575 W/m² | - |
| 1788342828 | 17.22° C | 68% | 1003.3 hPa | 0.25 mm | - | 572 W/m² | - |
| 1788342519 | 17.22° C | 70% | 1003.3 hPa | 0.25 mm | - | 570 W/m² | - |
| 1788342213 | 16.67° C | 67% | 1003.2 hPa | 0.25 mm | - | 574 W/m² | - |
| 1788341936 | 16.67° C | 71% | 1003.2 hPa | 0.25 mm | - | 570 W/m² | - |
| 1788341630 | 16.67° C | 73% | 1003.2 hPa | 0.25 mm | - | 575 W/m² | - |
| 1788341322 | 16.67° C | 73% | 1003.2 hPa | 0.25 mm | - | 567 W/m² | - |
| 1788341012 | 16.67° C | 71% | 1003.2 hPa | 0.25 mm | - | 572 W/m² | - |
| 1788340724 | 16.67° C | 70% | 1003.2 hPa | 0.25 mm | - | 560 W/m² | - |
| 1788340420 | 16.67° C | 70% | 1003.2 hPa | 0.25 mm | - | 570 W/m² | - |
| 1788340111 | 16.67° C | 73% | 1003.2 hPa | 0.25 mm | - | 602 W/m² | - |
* Rain since midnight (hover to see other rain measurements)
** Current wind speed in m/s (hover to see current wind gust speed)